Regional Weather Roundup
Issued by NWS Columbia, SC

Current Version | Previous Version | Text Only | Print | Product List | Glossary On
Versions: 1 2 3 4 5 6 7 8 9 10 11 12 13 14 15 16 17 18 19 20 21 22 23 24 25 26 27 28 29 30 31 32 33 34 35 36 37 38 39 40 41 42 43 44 45 46 47 48 49 50
757
ASUS42 KCAE 261010
RWRCAE
REGIONAL WEATHER ROUNDUP
NATIONAL WEATHER SERVICE COLUMBIA SC
600 AM EDT TUE JUL 26 2016

NOTE: "FAIR" INDICATES FEW OR NO CLOUDS BELOW 12,000 FEET WITH NO
SIGNIFICANT WEATHER AND/OR OBSTRUCTIONS TO VISIBILITY.

NOT ALL STATIONS ARE QUALITY CONTROLLED BY THE NATIONAL
WEATHER SERVICE. USE DATA WITH CAUTION...ESPECIALLY
DEWPOINT OBSERVATIONS.

SCZ001>056-GAZ040-063>065-077-261100-
...UPSTATE SOUTH CAROLINA...

CITY           SKY/WX    TMP DP  RH WIND       PRES   REMARKS
ANDERSON       CLEAR     75  72  90 CALM      30.03R
LIBERTY        SUNNY     71  71  99 CALM      30.03S
SPARTANBURG    CLEAR     73  70  88 CALM      30.03R
CLEMSON        PTCLDY    76  73  91 CALM      30.05R
GREENVILLE     CLEAR     77  70  79 SW6       30.04S
GREENWOOD      CLEAR     76  68  76 S5        30.03S
GREER          CLEAR     74  71  91 SW3       30.02R
ROCK HILL      CLEAR     76  69  79 SW6       30.04R
CHESTER        SUNNY     73  68  83 CALM      30.03S
LAURENS        SUNNY     75  70  83 SW3       30.02S


...CENTRAL SOUTH CAROLINA...

CITY           SKY/WX    TMP DP  RH WIND       PRES   REMARKS
COLUMBIA APT   CLEAR     77  71  82 CALM      30.02R
COLUMBIA OWENS CLEAR     78  71  79 CALM      30.03R
MCENTIRE ANGB  PTCLDY    75  71  87 CALM      30.03R
ORANGEBURG     CLEAR     73  71  93 S5        30.04R
SUMTER SHAW    CLEAR     75  71  87 S6        30.01R
NEWBERRY       SUNNY     75  70  83 S5        30.05S
AIKEN          FAIR      73  70  88 SW7       30.06S
MANNING        FAIR      77  72  83 SW3       30.04R
LANCASTER      SUNNY     75  72  88 S6        30.03R
WINNSBORO      SUNNY     75  70  83 S6        30.03


...EASTERN AND COASTAL SOUTH CAROLINA...

CITY           SKY/WX    TMP DP  RH WIND       PRES   REMARKS
MYRTLE BEACH   CLEAR     77  66  69 SW5       30.06R
N MYRTLE BCH   CLEAR     80  73  79 SW8       30.03R
CONWAY         FAIR      72  72 100 CALM      30.04R
MARION           N/A     73  72  94 CALM      30.04R
HARTSVILLE     FAIR      73  70  88 SW3       30.03R
FLORENCE       CLEAR     76  73  91 SW5       30.03R
DARLINGTON     CLEAR     75  73  93 SW5       30.03R
CHARLESTON APT CLEAR     76  72  87 SW3       30.04R
MOUNT PLEASANT FAIR      73  73 100 CALM      30.05R
WALTERBORO     SUNNY     77  77 100 S3        30.05R
BEAUFORT       CLEAR     78  73  84 SW6       30.04R


...EASTERN GEORGIA...

CITY           SKY/WX    TMP DP  RH WIND       PRES   REMARKS
AUGUSTA BUSH F CLEAR     74  70  87 CALM      30.02R
AUGUSTA DANIEL CLEAR     77  70  79 CALM      30.04R
WASHINGTON     FAIR      75  73  94 SW3       30.03S
CLAXTON        FAIR      73  73 100 CALM      30.04S
STATESBORO     CLEAR     76  74  92 CALM      30.04R
SAVANNAH       PTCLDY    76  72  87 SW5       30.05R


...SOUTHERN NORTH CAROLINA...

CITY           SKY/WX    TMP DP  RH WIND       PRES   REMARKS
CHARLOTTE      PTCLDY    77  68  73 SW3       30.03R
MONROE         CLEAR     74  68  81 SW7       30.02R
ROCKINGHAM     MOSUNNY   75  72  91 CALM      30.03R
RUTHERFORDTON    N/A     71  71 100 CALM      30.05S
ASHEVILLE      CLEAR     71  65  81 CALM      30.11S

$$




USA.gov is the U.S. government's official web portal to all federal, state and local government web resources and services.